Weather History for Frederick, OK

Change the Weather History Date:

Thursday, January 17, 2013

  Actual Average (KLTS) Record (KLTS)
Temperature  
Mean Temperature 46 °F -  
Max Temperature 57 °F 50 °F 64 °F (1999)
Min Temperature 34 °F 27 °F 14 °F (1997)
Degree Days  
Heating Degree Days 20    
Moisture  
Dew Point 28 °F    
Average Humidity 56    
Maximum Humidity 73    
Minimum Humidity 33    
Precipitation  
Precipitation 0.00 in - - ()
Sea Level Pressure  
Sea Level Pressure 30.41 in    
Wind  
Wind Speed 10 mph (North)    
Max Wind Speed 15 mph    
Max Gust Speed -    
Visibility 10 miles    
Events      
Averages and records for this station are not official NWS values.
T = Trace of Precipitation, MM = Missing Value Source: NWS Daily Summary

Daily Weather History Graph

Daily Weather History Graph

Search for Another Location

Airport:

Trip Planner

Search our weather history database for the weather conditions in past years. The results will help you decide how hot, cold, wet, or windy it might be!

Date:

Astronomy

Jan. 17, 2013 Rise Set
Actual Time 7:41 AM CST 5:51 PM CST
Civil Twilight 7:14 AM CST 6:18 PM CST
Nautical Twilight 6:43 AM CST 6:49 PM CST
Astronomical Twilight 6:13 AM CST 7:19 PM CST
Moon 11:08 AM CST (1/17) No Moon Set
Length of Visible Light 11h 04m
Length of Day
10h 10m
Waxing Crescent, 38% of the Moon is Illuminated
Jan 17
Waxing Crescent
Jan 18
First Quarter
Jan 26
Full
Feb 3
Last Quarter
Feb 10
New

Hourly Weather History & Observations

Time (CST) Temp. Windchill Dew Point Humidity Pressure Visibility Wind Dir Wind Speed Gust Speed Precip Events Conditions
12:53 AM 37.9 °F 29.2 °F 28.0 °F 68% 30.25 in 10.0 mi NW 15.0 mph - N/A   Clear
1:53 AM 41.0 °F 33.1 °F 28.9 °F 62% 30.26 in 10.0 mi NNW 15.0 mph - N/A   Clear
2:53 AM 37.9 °F 31.5 °F 28.0 °F 68% 30.29 in 10.0 mi NW 9.2 mph - N/A   Clear
3:53 AM 39.9 °F 32.1 °F 28.0 °F 63% 30.30 in 10.0 mi North 13.8 mph - N/A   Clear
4:53 AM 37.9 °F 30.5 °F 27.0 °F 65% 30.32 in 10.0 mi North 11.5 mph - N/A   Clear
5:53 AM 35.1 °F 27.9 °F 26.1 °F 70% 30.35 in 10.0 mi NW 9.2 mph - N/A   Clear
6:53 AM 34.0 °F 26.6 °F 26.1 °F 73% 30.39 in 10.0 mi NW 9.2 mph - N/A   Clear
7:53 AM 34.0 °F 27.2 °F 26.1 °F 73% 30.42 in 10.0 mi NNW 8.1 mph - N/A   Clear
8:53 AM 39.0 °F 31.0 °F 28.0 °F 65% 30.45 in 10.0 mi North 13.8 mph - N/A   Clear
9:53 AM 44.1 °F 39.5 °F 28.9 °F 55% 30.49 in 10.0 mi NNW 8.1 mph - N/A   Clear
11:53 AM 52.0 °F - 30.0 °F 43% 30.49 in 10.0 mi Variable 3.5 mph - N/A   Clear
12:53 PM 54.0 °F - 30.0 °F 40% 30.45 in 10.0 mi Calm Calm - N/A   Clear
1:53 PM 57.0 °F - 28.9 °F 34% 30.43 in 10.0 mi North 5.8 mph - N/A   Clear
2:53 PM 57.9 °F - 28.9 °F 33% 30.42 in 10.0 mi NNE 10.4 mph - N/A   Clear
3:53 PM 57.9 °F - 28.9 °F 33% 30.42 in 10.0 mi NE 3.5 mph - N/A   Clear
4:53 PM 57.9 °F - 28.9 °F 33% 30.43 in 10.0 mi North 4.6 mph - N/A   Clear
5:53 PM 51.1 °F - 28.9 °F 43% 30.44 in 10.0 mi North 6.9 mph - N/A   Clear
6:53 PM 45.0 °F 41.8 °F 28.0 °F 52% 30.46 in 10.0 mi NNW 5.8 mph - N/A   Clear
7:53 PM 42.1 °F 39.2 °F 28.0 °F 58% 30.47 in 10.0 mi ENE 4.6 mph - N/A   Clear
8:53 PM 39.0 °F 35.7 °F 27.0 °F 62% 30.48 in 10.0 mi NE 4.6 mph - N/A   Clear
9:53 PM 37.9 °F - 26.1 °F 62% 30.48 in 10.0 mi Calm Calm - N/A   Clear
10:53 PM 37.0 °F - 26.1 °F 65% 30.48 in 10.0 mi Calm Calm - N/A   Clear
11:53 PM 39.0 °F 36.8 °F 28.0 °F 65% 30.46 in 10.0 mi SSE 3.5 mph - N/A   Clear